TimeEST,TemperatureF,Dew PointF,Humidity,Sea Level PressureIn,VisibilityMPH,Wind Direction,Wind SpeedMPH,Gust SpeedMPH,PrecipitationIn,Events,Conditions,WindDirDegrees,DateUTC
12:15 AM,32.0,21.2,64,29.75,10.0,NW,5.8,-,N/A,,Overcast,320,2013-03-03 05:15:00
12:35 AM,32.0,21.2,64,29.75,10.0,NNW,6.9,-,N/A,,Overcast,330,2013-03-03 05:35:00
12:55 AM,32.0,19.4,60,29.75,10.0,NW,6.9,-,N/A,,Overcast,320,2013-03-03 05:55:00
1:15 AM,32.0,19.4,60,29.75,10.0,NNW,4.6,-,N/A,,Overcast,340,2013-03-03 06:15:00
1:35 AM,32.0,19.4,60,29.75,10.0,NW,5.8,-,N/A,,Overcast,320,2013-03-03 06:35:00
1:55 AM,32.0,19.4,60,29.75,10.0,NNW,10.4,-,N/A,,Overcast,330,2013-03-03 06:55:00
2:15 AM,32.0,19.4,60,29.74,10.0,NNW,5.8,-,N/A,,Overcast,330,2013-03-03 07:15:00
2:35 AM,32.0,19.4,60,29.74,10.0,NW,6.9,-,N/A,,Overcast,320,2013-03-03 07:35:00
2:55 AM,32.0,19.4,60,29.74,10.0,NNW,6.9,-,N/A,,Overcast,330,2013-03-03 07:55:00
3:15 AM,32.0,19.4,60,29.73,10.0,NNW,6.9,-,N/A,,Overcast,330,2013-03-03 08:15:00
3:35 AM,32.0,19.4,60,29.73,10.0,NW,5.8,-,N/A,,Overcast,320,2013-03-03 08:35:00
3:55 AM,32.0,19.4,60,29.73,10.0,NNW,9.2,-,N/A,,Overcast,340,2013-03-03 08:55:00
4:15 AM,32.0,19.4,60,29.74,10.0,NW,5.8,-,N/A,,Overcast,320,2013-03-03 09:15:00
4:35 AM,32.0,19.4,60,29.74,10.0,NW,8.1,17.3,N/A,,Overcast,320,2013-03-03 09:35:00
4:55 AM,32.0,17.6,55,29.74,10.0,NW,8.1,-,N/A,,Overcast,320,2013-03-03 09:55:00
5:15 AM,32.0,17.6,55,29.74,10.0,NNW,8.1,16.1,N/A,,Overcast,330,2013-03-03 10:15:00
5:35 AM,32.0,17.6,55,29.74,10.0,NW,9.2,-,N/A,,Overcast,320,2013-03-03 10:35:00
6:45 AM,28.4,17.6,64,29.75,10.0,NNW,8.1,15.0,N/A,,Overcast,340,2013-03-03 11:45:00
7:45 AM,28.4,17.6,64,29.76,10.0,NNW,11.5,16.1,N/A,,Mostly Cloudy,340,2013-03-03 12:45:00
8:45 AM,30.2,17.6,60,29.76,10.0,NW,8.1,16.1,N/A,,Mostly Cloudy,320,2013-03-03 13:45:00
9:45 AM,30.2,17.6,60,29.75,10.0,North,10.4,19.6,N/A,,Overcast,350,2013-03-03 14:45:00
10:45 AM,30.2,17.6,60,29.75,10.0,NW,9.2,18.4,N/A,,Mostly Cloudy,320,2013-03-03 15:45:00
11:45 AM,33.8,15.8,48,29.74,10.0,NNW,11.5,19.6,N/A,,Mostly Cloudy,340,2013-03-03 16:45:00
12:45 PM,33.8,17.6,52,29.72,10.0,NW,10.4,16.1,N/A,,Scattered Clouds,320,2013-03-03 17:45:00
1:45 PM,37.4,17.6,45,29.70,20.0,NW,11.5,21.9,N/A,,Scattered Clouds,320,2013-03-03 18:45:00
2:45 PM,37.4,17.6,45,29.69,20.0,NW,15.0,27.6,N/A,,Scattered Clouds,320,2013-03-03 19:45:00
3:45 PM,37.4,19.4,48,29.69,10.0,WNW,13.8,21.9,N/A,,Scattered Clouds,300,2013-03-03 20:45:00
4:45 PM,37.4,17.6,45,29.71,20.0,North,12.7,21.9,N/A,,Mostly Cloudy,360,2013-03-03 21:45:00
5:45 PM,33.8,17.6,52,29.72,15.0,NNW,6.9,15.0,N/A,,Mostly Cloudy,340,2013-03-03 22:45:00
6:45 PM,32.0,17.6,55,29.75,10.0,NNW,11.5,23.0,N/A,,Mostly Cloudy,330,2013-03-03 23:45:00
7:45 PM,30.2,17.6,60,29.76,7.0,North,11.5,17.3,N/A,,Partly Cloudy,360,2013-03-04 00:45:00
8:45 PM,30.2,17.6,60,29.78,7.0,NNW,5.8,18.4,N/A,,Scattered Clouds,340,2013-03-04 01:45:00
9:45 PM,28.4,17.6,64,29.78,10.0,NNW,17.3,32.2,N/A,,Clear,330,2013-03-04 02:45:00
9:55 PM,32.0,15.8,51,29.78,10.0,NW,13.8,19.6,N/A,,Clear,310,2013-03-04 02:55:00
10:15 PM,32.0,17.6,55,29.78,10.0,NW,8.1,-,N/A,,Clear,310,2013-03-04 03:15:00
10:35 PM,30.2,17.6,60,29.77,10.0,NW,5.8,-,N/A,,Clear,310,2013-03-04 03:35:00
10:55 PM,30.2,17.6,60,29.78,10.0,NW,4.6,-,N/A,,Clear,310,2013-03-04 03:55:00
11:15 PM,30.2,15.8,55,29.78,10.0,WNW,11.5,-,N/A,,Clear,300,2013-03-04 04:15:00
11:35 PM,30.2,15.8,55,29.79,10.0,WNW,9.2,17.3,N/A,,Clear,290,2013-03-04 04:35:00
11:55 PM,30.2,15.8,55,29.79,10.0,WNW,8.1,-,N/A,,Clear,300,2013-03-04 04:55:00